Location: Aalen
(48.8330°N, 10.1000°E)
Time: 18:24:52
(UTC+01:00)

UWE-3 - Pass Details

Date: 13 October 2025
Orbit: 548 x 618 km, 97.8° (Epoch: 12 November)

Event Time Altitude Azimuth Distance (km) Brightness Sun altitude
Rises 04:46:38 0° 6° (N) 2,758 ? -28.3°
Reaches altitude 10° 04:48:52 10° 358° (N) 1,866 ? -28.0°
Enters shadow 04:49:15 12° 355° (N) 1,719 ? -28.0°
